TimeEST,TemperatureF,Dew PointF,Humidity,Sea Level PressureIn,VisibilityMPH,Wind Direction,Wind SpeedMPH,Gust SpeedMPH,PrecipitationIn,Events,Conditions,WindDirDegrees,DateUTC
1:55 AM,28.4,15.4,58,30.10,10.0,WNW,10.4,-,N/A,,Clear,290,2013-02-20 06:55:00
2:15 AM,27.5,16.2,62,30.10,10.0,NW,4.6,-,N/A,,Scattered Clouds,320,2013-02-20 07:15:00
2:35 AM,27.1,16.7,65,30.10,10.0,NW,5.8,-,N/A,,Clear,320,2013-02-20 07:35:00
2:55 AM,26.6,16.7,66,30.11,10.0,NW,6.9,17.3,N/A,,Clear,310,2013-02-20 07:55:00
3:15 AM,25.9,17.1,69,30.11,10.0,NW,4.6,-,N/A,,Scattered Clouds,310,2013-02-20 08:15:00
3:35 AM,25.7,16.7,69,30.11,10.0,WNW,9.2,-,N/A,,Scattered Clouds,300,2013-02-20 08:35:00
3:55 AM,25.2,16.5,70,30.12,10.0,WNW,6.9,-,N/A,,Clear,290,2013-02-20 08:55:00
4:15 AM,24.8,16.3,70,30.12,10.0,WNW,8.1,-,N/A,,Clear,290,2013-02-20 09:15:00
4:35 AM,24.4,16.0,70,30.13,10.0,WNW,8.1,17.3,N/A,,Scattered Clouds,290,2013-02-20 09:35:00
4:55 AM,24.3,15.6,70,30.14,10.0,West,8.1,-,N/A,,Scattered Clouds,280,2013-02-20 09:55:00
5:15 AM,24.4,15.8,70,30.15,10.0,West,8.1,-,N/A,,Mostly Cloudy,280,2013-02-20 10:15:00
5:35 AM,24.3,14.9,68,30.15,10.0,WNW,10.4,16.1,N/A,,Overcast,290,2013-02-20 10:35:00
6:15 AM,23.9,14.0,66,30.16,10.0,WNW,5.8,-,N/A,,Overcast,290,2013-02-20 11:15:00
6:35 AM,23.7,14.4,67,30.17,10.0,WNW,8.1,-,N/A,,Overcast,290,2013-02-20 11:35:00
6:55 AM,22.8,12.9,66,30.18,10.0,NNW,9.2,-,N/A,,Overcast,330,2013-02-20 11:55:00
7:15 AM,22.5,12.6,66,30.19,10.0,WNW,9.2,-,N/A,,Overcast,290,2013-02-20 12:15:00
7:55 AM,21.9,11.5,64,30.19,10.0,WNW,5.8,-,N/A,,Overcast,300,2013-02-20 12:55:00
8:15 AM,22.5,11.3,62,30.20,10.0,WNW,6.9,-,N/A,,Overcast,300,2013-02-20 13:15:00
8:35 AM,23.0,12.0,63,30.21,10.0,WNW,8.1,-,N/A,,Overcast,300,2013-02-20 13:35:00
9:35 AM,24.4,12.6,61,30.22,10.0,WSW,5.8,-,N/A,,Overcast,250,2013-02-20 14:35:00
10:15 AM,25.2,12.4,58,30.21,10.0,West,6.9,-,N/A,,Overcast,260,2013-02-20 15:15:00
10:35 AM,26.8,13.1,56,30.20,10.0,SW,8.1,-,N/A,,Mostly Cloudy,230,2013-02-20 15:35:00
10:55 AM,27.9,13.1,54,30.21,10.0,WSW,6.9,-,N/A,,Overcast,250,2013-02-20 15:55:00
11:15 AM,27.9,12.6,53,30.21,10.0,West,5.8,-,N/A,,Mostly Cloudy,270,2013-02-20 16:15:00
11:35 AM,28.0,12.6,52,30.21,10.0,WSW,6.9,-,N/A,,Scattered Clouds,250,2013-02-20 16:35:00
11:55 AM,28.0,12.6,52,30.22,10.0,SW,6.9,-,N/A,,Scattered Clouds,230,2013-02-20 16:55:00
12:15 PM,28.9,12.2,50,30.21,10.0,WNW,4.6,-,N/A,,Scattered Clouds,290,2013-02-20 17:15:00
12:35 PM,31.1,13.3,48,30.21,10.0,WNW,6.9,-,N/A,,Scattered Clouds,300,2013-02-20 17:35:00
12:55 PM,31.5,12.7,46,30.20,10.0,West,6.9,-,N/A,,Scattered Clouds,280,2013-02-20 17:55:00
1:15 PM,32.0,13.3,46,30.19,10.0,WNW,5.8,-,N/A,,Scattered Clouds,290,2013-02-20 18:15:00
1:35 PM,32.4,12.9,45,30.19,10.0,West,4.6,18.4,N/A,,Scattered Clouds,270,2013-02-20 18:35:00
1:55 PM,34.0,13.6,43,30.18,10.0,West,12.7,19.6,N/A,,Clear,260,2013-02-20 18:55:00
2:15 PM,33.8,13.3,43,30.18,10.0,West,5.8,-,N/A,,Clear,280,2013-02-20 19:15:00
2:35 PM,34.5,14.2,43,30.17,10.0,West,9.2,-,N/A,,Clear,270,2013-02-20 19:35:00
2:55 PM,34.3,12.2,40,30.17,10.0,WNW,6.9,-,N/A,,Clear,300,2013-02-20 19:55:00
3:15 PM,35.8,13.5,40,30.17,10.0,WNW,6.9,-,N/A,,Clear,300,2013-02-20 20:15:00
3:35 PM,34.7,12.6,40,30.17,10.0,NW,5.8,-,N/A,,Clear,320,2013-02-20 20:35:00
3:55 PM,35.2,12.6,39,30.17,10.0,West,8.1,-,N/A,,Clear,280,2013-02-20 20:55:00
4:15 PM,35.2,12.4,39,30.18,10.0,NW,9.2,-,N/A,,Clear,320,2013-02-20 21:15:00
4:35 PM,35.4,13.3,40,30.18,10.0,West,4.6,-,N/A,,Clear,280,2013-02-20 21:35:00
4:55 PM,34.5,13.3,42,30.19,10.0,NNW,6.9,-,N/A,,Clear,330,2013-02-20 21:55:00
5:15 PM,34.0,12.7,42,30.19,10.0,NNW,8.1,-,N/A,,Clear,330,2013-02-20 22:15:00
5:35 PM,33.1,12.9,43,30.20,10.0,NW,6.9,-,N/A,,Clear,320,2013-02-20 22:35:00
5:55 PM,32.0,12.7,45,30.20,10.0,NW,5.8,-,N/A,,Clear,310,2013-02-20 22:55:00
6:35 PM,30.9,13.1,48,30.21,10.0,NNW,4.6,-,N/A,,Clear,340,2013-02-20 23:35:00
6:55 PM,30.7,13.5,49,30.22,10.0,NNW,5.8,-,N/A,,Clear,330,2013-02-20 23:55:00
7:15 PM,30.2,13.5,50,30.23,10.0,NW,5.8,-,N/A,,Clear,320,2013-02-21 00:15:00
7:35 PM,30.2,13.6,50,30.23,10.0,NW,4.6,-,N/A,,Clear,320,2013-02-21 00:35:00
7:55 PM,29.8,13.8,51,30.22,10.0,NNW,4.6,-,N/A,,Clear,330,2013-02-21 00:55:00
8:15 PM,29.5,14.0,53,30.22,10.0,NNW,3.5,-,N/A,,Clear,330,2013-02-21 01:15:00
8:35 PM,29.5,14.0,53,30.22,10.0,NNW,4.6,-,N/A,,Clear,330,2013-02-21 01:35:00
8:55 PM,29.3,14.0,53,30.23,10.0,NW,3.5,-,N/A,,Clear,320,2013-02-21 01:55:00
9:15 PM,29.1,14.2,54,30.22,10.0,Calm,Calm,-,N/A,,Clear,0,2013-02-21 02:15:00
9:35 PM,28.9,14.0,54,30.22,10.0,Calm,Calm,-,N/A,,Clear,0,2013-02-21 02:35:00
9:55 PM,28.6,14.2,55,30.23,10.0,Calm,Calm,-,N/A,,Clear,0,2013-02-21 02:55:00
10:15 PM,28.2,14.4,56,30.23,10.0,NW,3.5,-,N/A,,Clear,320,2013-02-21 03:15:00
10:35 PM,27.9,14.0,56,30.23,10.0,Calm,Calm,-,N/A,,Clear,0,2013-02-21 03:35:00
10:55 PM,27.3,14.0,57,30.22,10.0,Calm,Calm,-,N/A,,Clear,0,2013-02-21 03:55:00
11:15 PM,26.4,14.0,59,30.22,10.0,Calm,Calm,-,N/A,,Clear,0,2013-02-21 04:15:00
11:35 PM,25.5,14.0,62,30.22,10.0,NNE,3.5,-,N/A,,Clear,20,2013-02-21 04:35:00
11:55 PM,25.0,14.0,63,30.22,10.0,North,3.5,-,N/A,,Clear,10,2013-02-21 04:55:00